EW2581 Weather Reports


time (UTC)temp
C
wind
direction
speed
KPH
gust
KPH
rain 1hr
cm
rain 24hr
cm
rain mn
cm
humidity
%
barometer
mb
20260504081546 2 360 0.0 0.0 0.00 0.00 0.00 67 1006.9
20260504044522 8 360 0.0 0.0 0.00 0.00 0.00 49 1008.0
20260504043027 8 360 0.0 0.0 0.00 0.00 0.00 48 1007.9
20260504041531 10 360 0.0 0.0 0.00 0.00 0.00 44 1008.0
20260504040020 10 360 0.0 0.0 0.00 0.00 0.00 41 1008.4
20260504034520 10 360 0.0 0.0 0.00 0.00 0.00 36 1008.8
20260504033020 10 360 0.0 0.0 0.00 0.00 0.00 35 1008.5
20260504031519 10 360 0.0 0.0 0.00 0.00 0.00 37 1008.3
20260504030018 12 360 0.0 0.0 0.00 0.00 0.00 32 1008.3
20260504024520 12 360 0.0 0.0 0.00 0.00 0.00 29 1008.0
20260504023018 12 360 0.0 0.0 0.00 0.00 0.00 31 1008.0
20260504021518 12 360 0.0 0.0 0.00 0.00 0.00 30 1007.9
20260504020021 13 360 0.0 0.0 0.00 0.00 0.00 28 1007.9
20260504014524 15 360 0.0 0.0 0.00 0.00 0.00 23 1007.6
20260504013021 15 360 0.0 0.0 0.00 0.00 0.00 23 1007.6
20260504011515 16 360 0.0 0.0 0.00 0.00 0.00 20 1007.5
20260504010014 16 360 0.0 0.0 0.00 0.00 0.00 19 1007.6
20260504004519 17 360 0.0 0.0 0.00 0.00 0.00 17 1007.7
20260504003014 17 360 0.0 0.0 0.00 0.00 0.00 17 1007.7
20260504001513 17 360 0.0 0.0 0.00 0.00 0.00 17 1007.6
20260504000012 17 360 0.0 0.0 0.00 0.00 0.00 18 1007.9
20260503234511 18 360 0.0 0.0 0.00 0.00 0.00 16 1008.0
20260503233016 18 360 0.0 0.0 0.00 0.00 0.00 20 1008.2
20260503231508 17 360 0.0 0.0 0.00 0.00 0.00 19 1008.3
20260503230010 17 360 0.0 0.0 0.00 0.00 0.00 20 1008.4
20260503224507 17 360 0.0 0.0 0.00 0.00 0.00 20 1008.4
20260503223007 17 360 0.0 0.0 0.00 0.00 0.00 21 1008.6
20260503221504 17 360 0.0 0.0 0.00 0.00 0.00 21 1008.8
20260503220003 17 360 0.0 0.0 0.00 0.00 0.00 20 1008.9
20260503214505 17 360 0.0 0.0 0.00 0.00 0.00 20 1009.0
20260503213100 17 360 0.0 0.0 0.00 0.00 0.00 21 1009.1
20260503211559 17 360 0.0 0.0 0.00 0.00 0.00 20 1009.4
20260503210100 17 360 0.0 0.0 0.00 0.00 0.00 20 1009.7
20260503204557 17 360 0.0 0.0 0.00 0.00 0.00 20 1010.0
20260503203057 17 360 0.0 0.0 0.00 0.00 0.00 19 1010.4
20260503201552 17 360 0.0 0.0 0.00 0.00 0.00 19 1010.5
20260503200055 17 360 0.0 0.0 0.00 0.00 0.00 18 1010.6
20260503194558 17 360 0.0 0.0 0.00 0.00 0.00 20 1010.8
20260503193049 16 360 0.0 0.0 0.00 0.00 0.00 20 1010.9
20260503191553 17 360 0.0 0.0 0.00 0.00 0.00 20 1011.2
20260503190047 16 360 0.0 0.0 0.00 0.00 0.00 21 1011.5
20260503184545 16 360 0.0 0.0 0.00 0.00 0.00 21 1011.5
20260503183043 16 360 0.0 0.0 0.00 0.00 0.00 22 1011.7
20260503181542 16 360 0.0 0.0 0.00 0.00 0.00 22 1012.0
20260503180045 16 360 0.0 0.0 0.00 0.00 0.00 21 1012.0
20260503174538 15 360 0.0 0.0 0.00 0.00 0.00 24 1012.3
20260503173038 15 360 0.0 0.0 0.00 0.00 0.00 26 1012.4
20260503171540 15 360 0.0 0.0 0.00 0.00 0.00 26 1012.6